Location: Laguna de la Cañada del Gallo
(40.3974°N, 5.2096°W)
Time: 06:31:32
(UTC+00:00)

Ariane Rocket - Visible Passes

Search period start: 13 July 2024 00:00
Search period end: 23 July 2024 00:00
Orbit: 756 x 767 km, 98.5° (Epoch: 12 July)

Date Brightness Start Highest point End Pass type
(mag) Time Alt. Az. Time Alt. Az. Time Alt. Az.
13 Jul 3.3 21:23:28 23° SE 21:26:28 52° ENE 21:31:23 10° N visible
13 Jul 5.1 23:03:36 14° WSW 23:05:40 18° W 23:09:02 10° NW visible
14 Jul 4.4 20:45:22 11° ESE 20:49:04 24° ENE 20:53:04 10° NNE visible
14 Jul 3.9 22:25:31 26° SSW 22:27:43 40° W 22:32:30 10° NNW visible
15 Jul 2.9 21:47:25 30° SSE 21:49:59 87° ENE 21:55:05 10° NNW visible
16 Jul 3.7 21:09:20 19° SE 21:12:27 38° ENE 21:17:07 10° N visible
16 Jul 4.7 22:49:28 19° SW 22:51:27 24° W 22:55:32 10° NW visible
17 Jul 4.7 20:31:46 10° ESE 20:35:07 18° ENE 20:38:29 10° NNE visible
17 Jul 3.4 22:11:22 31° SSW 22:13:35 55° W 22:18:34 10° NNW visible
18 Jul 3.0 21:33:17 28° SE 21:35:55 64° ENE 21:40:56 10° N visible
18 Jul 5.3 23:13:25 12° WSW 23:15:15 14° W 23:17:55 10° WNW visible
19 Jul 4.1 20:55:12 15° ESE 20:58:28 29° ENE 21:02:46 10° N visible
19 Jul 4.3 22:35:20 25° SW 22:37:15 33° W 22:41:48 10° NNW visible
20 Jul 5.0 20:18:49 10° E 20:21:13 13° ENE 20:23:37 10° NNE visible
20 Jul 3.0 21:57:14 34° S 21:59:28 77° WSW 22:04:32 10° NNW visible
21 Jul 3.4 21:19:10 24° SE 21:21:52 47° ENE 21:26:42 10° N visible
21 Jul 4.9 22:59:18 17° WSW 23:01:00 20° W 23:04:38 10° NW visible
22 Jul 4.5 20:41:04 12° ESE 20:44:29 22° ENE 20:48:16 10° NNE visible
22 Jul 3.8 22:21:12 31° SSW 22:23:04 45° W 22:27:55 10° NNW visible
